Prince George,

12:51 AM PDT on June 24, 2017 (GMT -0700)
Prince George

Weather History for CYXS - October, 2013

Change the Weather History Date:

Thursday, October 3, 2013

  Actual Average Record
Temperature  
Mean Temperature 38 °F -  
Max Temperature 53 °F 48 °F 68 °F (2004)
Min Temperature 24 °F 31 °F 21 °F (2012)
Degree Days  
Heating Degree Days 26    
Moisture  
Dew Point 31 °F    
Average Humidity 84    
Maximum Humidity 100    
Minimum Humidity 36    
Precipitation  
Precipitation 0.00 in 0.08 in - ()
Sea Level Pressure  
Sea Level Pressure 30.39 in    
Wind  
Wind Speed 3 mph ()    
Max Wind Speed 8 mph    
Max Gust Speed -    
Visibility 5.3 miles    
Events Fog    
Averages and records for this station are not official NWS values.
T = Trace of Precipitation, MM = Missing Value Source: Averaged Metar Reports

Daily Weather History Graph

Daily Weather History Graph

Search for Another Location

Airport or City:

Trip Planner

Search our weather history database for the weather conditions in past years. The results will help you decide how hot, cold, wet, or windy it might be!

Date:

Astronomy

Oct. 03, 2013 Rise Set
Actual Time 7:16 AM PDT 6:41 PM PDT
Civil Twilight 6:41 AM PDT 7:16 PM PDT
Nautical Twilight 6:00 AM PDT 7:57 PM PDT
Astronomical Twilight 5:18 AM PDT 8:39 PM PDT
Moon 5:49 AM PDT (10/3) 5:55 PM PDT (10/3)
Length of Visible Light 12h 34m
Length of Day
11h 24m
Waning Crescent, 2% of the Moon is Illuminated
Oct 3
Waning Crescent
Oct 4
New
Oct 11
First Quarter
Oct 18
Full
Oct 26
Last Quarter

Hourly Weather History & Observations

Time (PDT) Temp. Windchill Dew Point Humidity Pressure Visibility Wind Dir Wind Speed Gust Speed Precip Events Conditions
12:00 AM 32.0 °F - 30.2 °F 93% 30.29 in 9.0 mi SSW 2.3 mph - N/A   Overcast
1:00 AM 32.0 °F 28.7 °F 30.2 °F 93% 30.29 in 9.0 mi South 3.5 mph - N/A   Overcast
2:00 AM 30 °F - 29 °F 97% 30.30 in 10 mi SSE 2.3 mph - -  
2:00 AM 30.2 °F - 30.2 °F 100% 30.30 in 9.0 mi SSE 2.3 mph - N/A   Scattered Clouds
2:35 AM 28.4 °F - 28.4 °F 100% 30.32 in 4.0 mi SW 2.3 mph - N/A   Clear
2:48 AM 28.4 °F - 28.4 °F 100% 30.32 in 6.0 mi SSW 2.3 mph - N/A   Scattered Clouds
3:00 AM 28.4 °F - 28.4 °F 100% 30.32 in 7.0 mi WSW 2.3 mph - N/A   Scattered Clouds
4:00 AM 28.4 °F - 26.6 °F 93% 30.34 in 9.0 mi SSW 2.3 mph - N/A   Clear
4:51 AM 26.6 °F 22.6 °F 24.8 °F 93% 30.36 in 9.0 mi South 3.5 mph - N/A   Partly Cloudy
4:53 AM 26.6 °F 22.6 °F 24.8 °F 93% 30.36 in 4.0 mi South 3.5 mph - N/A   Partly Cloudy
5:00 AM 27 °F - 26 °F 97% 30.36 in 3 mi South 3.5 mph - -   Mist
5:00 AM 26.6 °F 22.6 °F 26.6 °F 100% 30.36 in 3.0 mi South 3.5 mph - N/A   Partly Cloudy
5:04 AM 26.6 °F 22.6 °F 26.6 °F 100% 30.36 in 6.0 mi South 3.5 mph - N/A   Partly Cloudy
6:00 AM 24.8 °F - 24.8 °F 100% 30.38 in 9.0 mi Calm Calm - N/A   Clear
6:19 AM 26.6 °F - 26.6 °F 100% 30.38 in 9.0 mi Calm Calm - N/A   Partly Cloudy
6:24 AM 24.8 °F - - N/A% 30.38 in 4.0 mi Calm Calm - N/A   Partly Cloudy
6:25 AM 24.8 °F - - N/A% 30.38 in 2.5 mi SE 2.3 mph - N/A   Scattered Clouds
6:26 AM 24.8 °F - - N/A% 30.38 in 1.8 mi SE 2.3 mph - N/A   Scattered Clouds
6:40 AM 24.8 °F - 24.8 °F 100% 30.38 in 2.5 mi SW 2.3 mph - N/A   Scattered Clouds
6:41 AM 24.8 °F - 24.8 °F 100% 30.38 in 4.0 mi SW 2.3 mph - N/A   Scattered Clouds
6:43 AM 24.8 °F - 24.8 °F 100% 30.38 in 8.0 mi SW 2.3 mph - N/A   Scattered Clouds
6:52 AM 24.8 °F 20.5 °F - N/A% 30.38 in 3.0 mi SW 3.5 mph - N/A   Partly Cloudy
6:55 AM 26.6 °F - - N/A% 30.38 in 2.5 mi SSW 2.3 mph - N/A   Partly Cloudy
6:56 AM 24.8 °F - 24.8 °F 100% 30.38 in 1.8 mi SSW 2.3 mph - N/A   Partly Cloudy
7:00 AM 24.8 °F - - N/A% 30.39 in 1.0 mi SSW 2.3 mph - N/A   Clear
7:08 AM 26.6 °F - - N/A% 30.40 in 3.0 mi SW 2.3 mph - N/A   Clear
7:15 AM 26.6 °F 22.6 °F - N/A% 30.40 in 6.0 mi SSW 3.5 mph - N/A   Clear
7:18 AM 26.6 °F 22.6 °F 26.6 °F 100% 30.40 in 9.0 mi South 3.5 mph - N/A   Partly Cloudy
7:27 AM 24.8 °F 19.1 °F 24.8 °F 100% 30.40 in 9.0 mi South 4.6 mph - N/A   Mostly Cloudy
7:30 AM 24.8 °F 20.5 °F 24.8 °F 100% 30.40 in 4.0 mi South 3.5 mph - N/A   Mostly Cloudy
7:31 AM 24.8 °F 20.5 °F 24.8 °F 100% 30.40 in 2.5 mi South 3.5 mph - N/A   Mostly Cloudy
7:32 AM 24.8 °F 20.5 °F - N/A% 30.40 in 1.8 mi South 3.5 mph - N/A   Mostly Cloudy
7:35 AM 24.8 °F 20.5 °F - N/A% 30.41 in 0.5 mi South 3.5 mph - N/A Fog Light Freezing Fog
7:36 AM 24.8 °F 20.5 °F - N/A% 30.40 in 0.4 mi South 3.5 mph - N/A Fog Light Freezing Fog
7:42 AM 24.8 °F 19.1 °F - N/A% 30.41 in 0.2 mi South 4.6 mph - N/A Fog Light Freezing Fog
8:00 AM 26 °F - - % 30.42 in 0 mi SSE 3.5 mph - -  
8:00 AM 24.8 °F - - N/A% 30.42 in 0.1 mi SSE 2.3 mph - N/A Fog Light Freezing Fog
8:12 AM 26.6 °F 22.6 °F - N/A% 30.43 in 0.1 mi SSE 3.5 mph - N/A Fog Light Freezing Fog
9:00 AM 28.4 °F - - N/A% 30.44 in 0.2 mi Variable 2.3 mph - N/A Fog Light Freezing Fog
9:27 AM 28.4 °F - - N/A% 30.45 in 0.5 mi Calm Calm - N/A Fog Light Freezing Fog
9:29 AM 30.2 °F - - N/A% 30.44 in 0.6 mi Calm Calm - N/A   Unknown
9:37 AM 30.2 °F - - N/A% 30.45 in 2.0 mi Variable 2.3 mph - N/A   Overcast
9:39 AM 30.2 °F - - N/A% 30.45 in 3.0 mi Variable 2.3 mph - N/A   Overcast
9:52 AM 30.2 °F 25.4 °F - N/A% 30.44 in 2.2 mi SSE 4.6 mph - N/A   Overcast
9:58 AM 30.2 °F 26.7 °F - N/A% 30.44 in 3.0 mi South 3.5 mph - N/A   Overcast
10:00 AM 32.0 °F 28.7 °F - N/A% 30.44 in 3.0 mi South 3.5 mph - N/A   Overcast
10:05 AM 32.0 °F 28.7 °F - N/A% 30.45 in 6.0 mi South 3.5 mph - N/A   Overcast
10:12 AM 32.0 °F 28.7 °F - N/A% 30.45 in 5.0 mi SSW 3.5 mph - N/A   Overcast
10:16 AM 32.0 °F 28.7 °F - N/A% 30.45 in 7.0 mi South 3.5 mph - N/A   Overcast
10:45 AM 35.6 °F - - N/A% 30.44 in 5.0 mi Calm Calm - N/A   Overcast
11:00 AM 38 °F - - % 30.44 in 6 mi South 2.3 mph - -   Overcast
11:00 AM 37.4 °F - - N/A% 30.44 in 6.0 mi Variable 2.3 mph - N/A   Haze
11:40 AM 39.2 °F - - N/A% 30.44 in 9.0 mi Variable 2.3 mph - N/A   Scattered Clouds
12:00 PM 41.0 °F - - N/A% 30.43 in 9.0 mi Variable 2.3 mph - N/A   Clear
1:00 PM 44.6 °F 42.2 °F 44.6 °F 100% 30.42 in 9.0 mi Variable 4.6 mph - N/A   Clear
2:00 PM 47 °F - 40 °F 67% 30.40 in 7 mi North 5.8 mph - -  
2:00 PM 48.2 °F - 39.2 °F 71% 30.40 in 8.0 mi NNE 6.9 mph - N/A   Clear
2:13 PM 46.4 °F 42.4 °F 39.2 °F 76% 30.40 in 5.0 mi North 8.1 mph - N/A   Haze
3:00 PM 48.2 °F - 39.2 °F 71% 30.39 in 3.0 mi North 5.8 mph - N/A   Haze
3:12 PM 50.0 °F - 39.2 °F 66% 30.38 in 7.0 mi East 5.8 mph - N/A   Clear
4:00 PM 51.8 °F - 37.4 °F 58% 30.38 in 9.0 mi Variable 2.3 mph - N/A   Clear
4:28 PM 51.8 °F - 37.4 °F 58% 30.37 in 4.0 mi North 3.5 mph - N/A   Haze
4:35 PM 51.8 °F - 35.6 °F 54% 30.37 in 7.0 mi Variable 2.3 mph - N/A   Clear
5:00 PM 53 °F - 34 °F 36% 30.37 in 10 mi SE 4.6 mph - -  
5:00 PM 53.6 °F - 33.8 °F 47% 30.36 in 9.0 mi SE 3.5 mph - N/A   Clear
5:43 PM 51.8 °F - 32.0 °F 47% 30.36 in 5.0 mi SSE 4.6 mph - N/A   Haze
5:53 PM 50.0 °F - 32.0 °F 50% 30.36 in 6.0 mi SE 4.6 mph - N/A   Haze
6:00 PM 50.0 °F - 32.0 °F 50% 30.36 in 5.0 mi SE 4.6 mph - N/A   Haze
6:11 PM 50.0 °F - 32.0 °F 50% 30.36 in 6.0 mi ESE 3.5 mph - N/A   Haze
7:00 PM 39.2 °F - 33.8 °F 81% 30.38 in 9.0 mi Calm Calm - N/A   Clear
8:00 PM 35 °F - 33 °F 87% 30.39 in 10 mi East 1.2 mph - -  
8:00 PM 35.6 °F - 32.0 °F 87% 30.38 in 9.0 mi Variable 2.3 mph - N/A   Clear
10:00 PM 33.8 °F 30.8 °F 32.0 °F 93% 30.38 in 9.0 mi South 3.5 mph - N/A   Clear
11:00 PM 31 °F - 30 °F 96% 30.37 in 10 mi South 5.8 mph - -  
11:00 PM 30.2 °F 24.3 °F 30.2 °F 100% 30.37 in 9.0 mi South 5.8 mph - N/A   Clear